Location: Colle Pacifico
(43.5333°N, 13.3167°E)
Time: 18:48:52
(UTC+00:00)

SL-08 R/B - Pass Details

Date: 07 June 2020
Orbit: 674 x 739 km, 98.4° (Epoch: 01 July)

Event Time Altitude Azimuth Distance (km) Brightness Sun altitude
Exits shadow 01:55:00 - 169° (S) 2,464 5.8 -13.1°
Reaches altitude 10° 01:55:52 10° 169° (S) 2,117 5.4 -13.0°
Maximum altitude 02:00:29 79° 256° (WSW) 695 3.2 -12.5°
Drops below altitude 10° 02:05:06 10° 344° (NNW) 2,117 6.2 -11.9°
Sets 02:07:21 0° 346° (NNW) 3,036 7.1 -11.7°
